Location: Tel Aviv
(32.0670°N, 34.7670°E)
Time: 11:28:57
(UTC+03:00)

Transit 2A - Pass Details

Date: 31 January 2022
Orbit: 598 x 960 km, 66.7° (Epoch: 20 May)

Event Time Altitude Azimuth Distance (km) Brightness Sun altitude
Rises 18:37:35 0° 338° (NNW) 3,518 9.6 -18.0°
Reaches altitude 10° 18:40:14 10° 341° (NNW) 2,528 8.8 -18.6°
Maximum altitude 18:46:01 62° 62° (ENE) 911 6.1 -19.8°
Enters shadow 18:49:20 23° 137° (SE) 1,611 7.3 -20.5°
Drops below altitude 10° 18:51:12 10° 143° (SE) 2,279 - -20.9°
Sets 18:53:28 0° 147° (SSE) 3,137 - -21.3°
